[[{"header":{"parameterUnit":"m.s-1","parameterCategory":1,"la1":30.2991,"la2":30.254,"lo1":-89.0895,"lo2":-89.0444,"dy":0.0017,"dx":0.0017,"nx":28,"ny":28,"refTime":"2023-09-15T09:00:00:Z","depth":0,"parameterNumber":2,"parameterNumberName":"U-component_of_WINDS"},"data":[0,0,0,0,0,0,0,0,0,0,0,0,0,0,0,0,0,0,0,0,0,0,0,0,0,0,0,0,0,0,0,0,0,0,0,0,0,0,0,0,0,0,0,0,0,0,0,0,0,0,0,0,0,0,0,0,0,0,0.8102,0.8103,0,0.8172,0.8173,0.8174,0.8216,0.8217,0.8217,0.8217,0.829,0.8292,0.8293,0,0,0,0,0,0,0,0,0,0,0,0,0,0.8006,0.8007,0.8102,0.8103,0.8104,0.8172,0.8173,0.8174,0.8216,0.8217,0.8217,0.8217,0.8289,0.8291,0.8293,0,0,0,0,0,0,0,0,0,0,0,0,0,0.8059,0.8008,0.8102,0.8133,0.8137,0.8172,0.8173,0.8174,0.8216,0.8217,0.8217,0.8217,0.8289,0.8291,0.8294,0.8304,0,0,0.8302,0.8303,0,0,0,0,0,0,0,0,0.8056,0.8063,0.8128,0.8131,0.8135,0.8186,0.8166,0.8218,0.8216,0.8186,0.8217,0.8217,0.8255,0.8261,0.8273,0.8307,0.8311,0.8302,0.8304,0.8305,0.8306,0,0,0,0,0,0,0,0.8052,0.806,0.813,0.8129,0.8133,0.8144,0.8152,0.8176,0.8218,0.8189,0.8192,0.82,0.8257,0.827,0.8275,0.8312,0.8302,0.8304,0.8306,0.8307,0.8358,0.8358,0,0,0,0,0,0,0.8043,0.8056,0.8128,0.8132,0.8095,0.8146,0.8154,0.8169,0.8218,0.8226,0.8199,0.8201,0.8266,0.8272,0.8278,0.8293,0.8305,0.8307,0.8309,0.8358,0.8358,0.8358,0,0,0,0,0,0,0.8041,0.8049,0.8125,0.8095,0.8106,0.8147,0.8163,0.8171,0.8184,0.8226,0.8234,0.8205,0.8266,0.8274,0.8297,0.8296,0.8308,0.8311,0.8359,0.8358,0.8358,0.8323,0,0,0,0,0,0,0.8038,0.8048,0.8052,0.8095,0.8107,0.8142,0.8163,0.8172,0.8188,0.8191,0.8233,0.8241,0.8267,0.8293,0.83,0.83,0.8313,0.8359,0.8358,0.8358,0.8324,0.8321,0.8319,0,0,0,0,0,0.8035,0.804,0.8052,0.8061,0.8113,0.8142,0.8149,0.8179,0.8188,0.8192,0.8219,0.8239,0.8295,0.8295,0.8303,0.8304,0.8359,0.8358,0.8358,0.8325,0.8322,0.8319,0,0,0,0,0,0,0.7996,0.8046,0.806,0.8079,0.8106,0.8149,0.8156,0.8175,0.82,0.8202,0.8239,0.8248,0.8267,0.8288,0.8287,0.8316,0.8329,0.833,0.8302,0.8299,0.8296,0.829,0.8315,0,0,0,0,0,0.799,0.8009,0.8052,0.8065,0.8077,0.8114,0.8128,0.8149,0.8179,0.819,0.8219,0.8247,0.8271,0.8286,0.8311,0.8328,0.8337,0.8332,0.8329,0.8327,0.8327,0.8338,0.8336,0.8356,0.8356,0.8356,0,0,0.7977,0.8007,0.8017,0.8058,0.8081,0.8101,0.8124,0.8143,0.8158,0.8194,0.8217,0.8239,0.8273,0.8293,0.8303,0.8311,0.8324,0.8326,0.8324,0.8326,0.8337,0.8335,0.8333,0.8356,0.8356,0.8356,0,0,0.7963,0.7988,0.8001,0.8024,0.8059,0.8083,0.8087,0.8127,0.8143,0.8167,0.8194,0.8213,0.8253,0.8276,0.8293,0.8289,0.8308,0.8296,0.8281,0.8291,0.8289,0.8288,0.8286,0.8285,0.8296,0.8296,0.8296,0,0.7943,0.7973,0.8005,0.8024,0.8041,0.8074,0.8087,0.8108,0.8149,0.8161,0.8169,0.822,0.8246,0.8271,0.827,0.8283,0.8288,0.8291,0.8287,0.8286,0.8285,0.8284,0.8283,0.8294,0.8294,0.8295,0.8295,0,0.7946,0.7967,0.7973,0.8012,0.803,0.8046,0.8081,0.8096,0.8115,0.8139,0.8163,0.8195,0.8226,0.8234,0.8253,0.8262,0.8266,0.828,0.8293,0.8281,0.828,0.828,0.8292,0.8292,0.8293,0.8293,0,0,0.7909,0.7966,0.7968,0.7986,0.8027,0.8044,0.8061,0.8092,0.8103,0.8131,0.8147,0.818,0.8194,0.8213,0.8235,0.8244,0.8238,0.8257,0.8259,0.8252,0.825,0.8238,0.8237,0.8251,0.8251,0.8251,0.8247,0,0.7901,0.7934,0.7964,0.7986,0.8005,0.8037,0.8052,0.808,0.8102,0.8123,0.8148,0.8171,0.8188,0.8199,0.8209,0.8237,0.8238,0.8238,0.8266,0.8267,0.8256,0.8237,0.8224,0.8218,0.8247,0.8247,0.8247,0,0.7896,0.7922,0.7946,0.7985,0.7995,0.8008,0.8038,0.8057,0.8089,0.8105,0.8126,0.815,0.817,0.8182,0.8211,0.821,0.8224,0.8239,0.824,0.8243,0.8255,0.8239,0.8217,0.8216,0.8246,0.8246,0.8246,0,0.7866,0.7907,0.7926,0.7941,0.7988,0.7996,0.8016,0.8048,0.8065,0.8091,0.8102,0.8131,0.8147,0.8169,0.82,0.8206,0.8225,0.824,0.8239,0.8238,0.824,0.824,0.822,0.825,0.825,0.825,0.825,0,0.7853,0.7866,0.7914,0.7925,0.7941,0.7976,0.7991,0.8013,0.8042,0.8059,0.8089,0.8104,0.8144,0.8165,0.8189,0.8209,0.8216,0.8229,0.8236,0.8226,0.8224,0.8235,0.8236,0.825,0.825,0.825,0.825,0,0.7822,0.7854,0.7877,0.792,0.7931,0.794,0.7977,0.799,0.8015,0.8036,0.8043,0.8082,0.8108,0.8141,0.8177,0.8194,0.821,0.822,0.8199,0.8203,0.82,0.8199,0.8185,0.8185,0.8216,0.8216,0.8215,0,0.7811,0.7822,0.7866,0.7879,0.7898,0.7919,0.7936,0.7971,0.7988,0.8025,0.8033,0.8061,0.8085,0.8124,0.8156,0.8184,0.8194,0.8188,0.8199,0.8189,0.8194,0.8192,0.8193,0.8185,0.8184,0.8184,0.8183,0,0.7789,0.7804,0.7827,0.7856,0.7875,0.7899,0.7925,0.7934,0.7975,0.7992,0.8018,0.8036,0.8073,0.8101,0.8133,0.8154,0.8175,0.818,0.8181,0.8171,0.8158,0.8164,0.8191,0.818,0.818,0.818,0.8181,0.8181,0.7767,0.7778,0.781,0.7835,0.7858,0.7881,0.7896,0.7922,0.7945,0.7977,0.7997,0.8022,0.8054,0.8099,0.812,0.814,0.8148,0.815,0.8151,0.815,0.8147,0.8155,0.8146,0.8147,0.8147,0.8147,0.8147,0,0.7745,0.7768,0.779,0.7825,0.7845,0.7863,0.7893,0.7908,0.793,0.7958,0.7981,0.8011,0.8038,0.8072,0.8101,0.8111,0.8121,0.8117,0.8116,0.8121,0.8138,0.8134,0.8108,0.8108,0.8108,0.8108,0.8108,0.8108,0.7736,0.7756,0.7775,0.7807,0.7829,0.7854,0.787,0.7891,0.7914,0.7946,0.7968,0.799,0.8021,0.8052,0.8078,0.8087,0.8096,0.8089,0.8101,0.8116,0.812,0.8123,0.8119,0.8091,0.8091,0.8082,0.8082,0.8082]},{"header":{"parameterUnit":"m.s-1","parameterCategory":1,"la1":30.2991,"la2":30.254,"lo1":-89.0895,"lo2":-89.0444,"dy":0.0017,"dx":0.0017,"nx":28,"ny":28,"refTime":"2023-09-15T09:00:00:Z","depth":0,"parameterNumber":3,"parameterNumberName":"V-component_of_WINDS"},"data":[0,0,0,0,0,0,0,0,0,0,0,0,0,0,0,0,0,0,0,0,0,0,0,0,0,0,0,0,0,0,0,0,0,0,0,0,0,0,0,0,0,0,0,0,0,0,0,0,0,0,0,0,0,0,0,0,0,0,1.394,1.394,0,1.3941,1.3941,1.3941,1.3933,1.3933,1.3933,1.3932,1.393,1.393,1.393,0,0,0,0,0,0,0,0,0,0,0,0,0,1.3929,1.3929,1.394,1.394,1.394,1.3941,1.3941,1.3941,1.3933,1.3933,1.3933,1.3932,1.393,1.393,1.393,0,0,0,0,0,0,0,0,0,0,0,0,0,1.3932,1.3929,1.394,1.3937,1.3936,1.3941,1.3941,1.3941,1.3933,1.3933,1.3933,1.3932,1.393,1.393,1.393,1.3937,0,0,1.3931,1.3931,0,0,0,0,0,0,0,0,1.3932,1.3932,1.3937,1.3937,1.3937,1.3937,1.3936,1.3939,1.3933,1.3934,1.3932,1.3932,1.3932,1.3932,1.3933,1.3937,1.3937,1.3931,1.3931,1.3931,1.3931,0,0,0,0,0,0,0,1.3932,1.3932,1.394,1.3937,1.3937,1.3934,1.3934,1.3936,1.3935,1.3934,1.3934,1.3934,1.3932,1.3933,1.3933,1.3937,1.3931,1.3931,1.3931,1.3931,1.3943,1.3943,0,0,0,0,0,0,1.3932,1.3932,1.394,1.394,1.3934,1.3934,1.3934,1.3937,1.3935,1.3934,1.3934,1.3934,1.3933,1.3933,1.3933,1.3938,1.3931,1.3931,1.3931,1.3943,1.3943,1.3943,0,0,0,0,0,0,1.3932,1.3933,1.394,1.3936,1.3937,1.3935,1.3938,1.3937,1.3938,1.3935,1.3934,1.3935,1.3932,1.3932,1.3935,1.3938,1.3931,1.3931,1.3942,1.3943,1.3943,1.3951,0,0,0,0,0,0,1.3932,1.3933,1.3937,1.3936,1.3937,1.3945,1.3938,1.3937,1.3938,1.3938,1.3936,1.3935,1.3932,1.3935,1.3936,1.3938,1.3932,1.3942,1.3943,1.3943,1.3951,1.3952,1.3953,0,0,0,0,0,1.3932,1.394,1.3938,1.3939,1.3942,1.3945,1.3945,1.3942,1.3939,1.3941,1.3939,1.3935,1.3938,1.3936,1.3936,1.3939,1.3942,1.3943,1.3943,1.395,1.3952,1.3953,0,0,0,0,0,0,1.3941,1.394,1.3937,1.3946,1.3945,1.3944,1.3948,1.3944,1.3945,1.3944,1.3939,1.3939,1.3942,1.3941,1.3938,1.3943,1.3939,1.394,1.3944,1.3946,1.3947,1.3947,1.3932,0,0,0,0,0,1.3944,1.3948,1.3946,1.3953,1.3953,1.395,1.3952,1.3949,1.3948,1.3948,1.3946,1.3945,1.3945,1.3945,1.3946,1.395,1.3948,1.3952,1.3953,1.3954,1.3954,1.3954,1.3955,1.3945,1.3945,1.3945,0,0,1.395,1.395,1.3953,1.3955,1.3955,1.3957,1.395,1.3954,1.3955,1.3948,1.3951,1.3949,1.3947,1.395,1.3952,1.3949,1.3957,1.3955,1.3955,1.3955,1.3955,1.3956,1.3956,1.3945,1.3945,1.3945,0,0,1.3962,1.3964,1.3969,1.3968,1.3967,1.3965,1.3966,1.3964,1.3963,1.3965,1.396,1.396,1.3961,1.3959,1.3958,1.3966,1.3962,1.3966,1.3972,1.3971,1.3972,1.3973,1.3974,1.3975,1.3967,1.3967,1.3967,0,1.397,1.3975,1.3971,1.3974,1.3974,1.3969,1.3972,1.3971,1.3971,1.397,1.3967,1.3967,1.3965,1.3967,1.3968,1.3968,1.3968,1.3967,1.3973,1.3973,1.3974,1.3975,1.3975,1.3967,1.3967,1.3967,1.3967,0,1.3983,1.3985,1.3989,1.3989,1.3989,1.3992,1.3988,1.3988,1.3985,1.3982,1.3983,1.398,1.3979,1.3979,1.3976,1.3979,1.3977,1.3974,1.3969,1.3975,1.3976,1.3976,1.3968,1.3968,1.3968,1.3968,0,0,1.4002,1.3998,1.3999,1.3998,1.3995,1.3997,1.3998,1.3997,1.3997,1.3995,1.3995,1.3995,1.3991,1.399,1.3986,1.3986,1.399,1.3982,1.3982,1.3982,1.399,1.3993,1.3993,1.3987,1.3987,1.3987,1.399,0,1.4013,1.4017,1.4013,1.4017,1.4018,1.4011,1.4012,1.4009,1.4006,1.4005,1.4001,1.4,1.3996,1.3994,1.3994,1.399,1.3991,1.3989,1.3985,1.3985,1.3985,1.3994,1.3997,1.4,1.3991,1.3991,1.3991,0,1.4026,1.4025,1.403,1.4024,1.4025,1.4026,1.4023,1.4023,1.4018,1.4016,1.4013,1.4008,1.4007,1.4003,1.4,1.3999,1.3997,1.3994,1.3994,1.3993,1.3988,1.3992,1.4002,1.4002,1.3991,1.3991,1.3991,0,1.4038,1.4038,1.4039,1.4038,1.4033,1.4034,1.4031,1.4027,1.4025,1.4022,1.4021,1.4017,1.4015,1.4012,1.4005,1.4003,1.4002,1.3998,1.3999,1.3999,1.3999,1.3999,1.4007,1.3999,1.3999,1.3999,1.3999,0,1.405,1.4052,1.4044,1.4045,1.4047,1.4041,1.4042,1.4039,1.4034,1.4033,1.4027,1.4025,1.4017,1.4014,1.4009,1.4006,1.4006,1.4002,1.4001,1.4002,1.4003,1.4001,1.4,1.3999,1.3999,1.3999,1.3999,0,1.4063,1.4058,1.4059,1.4054,1.4052,1.4053,1.4047,1.4047,1.4042,1.4041,1.404,1.4033,1.4029,1.4022,1.4016,1.4012,1.401,1.4008,1.4011,1.401,1.4011,1.4011,1.4018,1.4018,1.401,1.401,1.401,0,1.4071,1.4072,1.4066,1.4065,1.4063,1.4061,1.4059,1.4053,1.4051,1.4045,1.4045,1.404,1.4036,1.403,1.4023,1.4017,1.4015,1.4017,1.4014,1.4015,1.4013,1.4013,1.4012,1.4018,1.4018,1.4018,1.4018,0,1.4084,1.4081,1.4079,1.4076,1.4074,1.4071,1.4067,1.4066,1.4058,1.4056,1.4052,1.4049,1.4042,1.4037,1.403,1.4026,1.402,1.4019,1.4019,1.4021,1.4022,1.402,1.4013,1.4019,1.4019,1.4019,1.4019,1.4019,1.4093,1.4093,1.4089,1.4086,1.4083,1.4079,1.4078,1.4073,1.4069,1.4064,1.406,1.4055,1.4048,1.4039,1.4034,1.403,1.4027,1.4027,1.4027,1.4027,1.4027,1.4023,1.4029,1.4029,1.4029,1.4028,1.4028,0,1.4105,1.4101,1.4099,1.4094,1.4091,1.4086,1.4081,1.4079,1.4076,1.407,1.4066,1.406,1.4055,1.4047,1.404,1.4038,1.4035,1.4036,1.4036,1.4034,1.403,1.4031,1.4038,1.4038,1.4038,1.4038,1.4038,1.4038,1.411,1.411,1.4106,1.4102,1.4098,1.4094,1.4092,1.4087,1.4083,1.4077,1.4072,1.4067,1.406,1.4052,1.4046,1.4044,1.4041,1.4043,1.404,1.4036,1.4035,1.4034,1.4034,1.4043,1.4043,1.4044,1.4044,1.4044]}]]